Date String (YYYY-MM-DD hh:mm:ss) UTC,Instrument flags,Ambient pressure (hPa),Sample flow (lpm),Bypass flow (lpm),Sample temperature (°C),Ambient temperature (°C),ASC tube jacket temperature (°C),LED temperature (°C),Box temperature (°C),Sample RH (%),Span deviation,Mass concentration (μg/m³),Mass concentration (μg/m³),Mass concentration (μg/m³)
DateTimeUTC,F1_M11,P_M11,Q1_M11,Q2_M11,T1_M11,T2_M11,T3_M11,T4_M11,T5_M11,U1_M11,ZSPAN_M11,X0_M11,X2_M11,X1_M11
2022-12-29 06:00:00,,0812.7,5.03,0.00,20.8,21.7,00.0,29.5,22.7,22.7,0000.0,0000.68,0000.57,0000.54
2022-12-29 06:01:00,,0812.7,4.96,0.00,21.0,22.2,00.0,29.6,23.0,22.5,0000.0,0000.68,0000.57,0000.54
2022-12-29 06:02:00,,0812.7,5.02,0.00,21.0,21.5,00.0,29.7,22.8,22.4,0000.0,0000.69,0000.57,0000.54
2022-12-29 06:03:00,,0812.6,5.03,0.00,21.0,20.5,00.0,29.7,22.6,22.4,0000.0,0000.71,0000.59,0000.55
2022-12-29 06:04:00,,0812.7,5.00,0.00,20.9,19.7,00.0,29.8,22.3,22.5,0000.0,0000.70,0000.59,0000.56
2022-12-29 06:05:00,,0812.7,5.00,0.00,20.8,19.2,00.0,29.8,22.1,22.6,0000.0,0000.72,0000.59,0000.57
2022-12-29 06:06:00,,0812.7,4.96,0.00,20.7,18.7,00.0,29.8,22.0,22.7,0000.0,0000.74,0000.60,0000.57
2022-12-29 06:07:00,,0812.7,4.97,0.00,20.6,18.4,00.0,29.7,21.9,22.7,0000.0,0000.73,0000.60,0000.56
2022-12-29 06:08:00,,0812.7,5.06,0.00,20.5,18.2,00.0,29.7,21.8,22.8,0000.0,0000.70,0000.58,0000.56
2022-12-29 06:09:00,,0812.7,5.00,0.00,20.6,19.4,00.0,29.6,22.1,22.8,0000.0,0000.74,0000.60,0000.56
2022-12-29 06:10:00,,0812.8,4.97,0.00,20.7,20.9,00.0,29.6,22.5,22.6,0000.0,0000.74,0000.60,0000.57
2022-12-29 06:11:00,,0812.8,5.01,0.00,20.9,22.0,00.0,29.6,22.9,22.3,0000.0,0000.73,0000.60,0000.57
2022-12-29 06:12:00,,0812.8,5.01,0.00,21.0,22.0,00.0,29.7,23.0,22.1,0000.0,0000.74,0000.61,0000.58
2022-12-29 06:13:00,,0812.8,4.99,0.00,21.0,21.1,00.0,29.8,22.8,22.1,0000.0,0000.77,0000.62,0000.58
2022-12-29 06:14:00,,0812.8,4.98,0.00,21.0,20.4,00.0,29.8,22.6,22.1,0000.0,0000.77,0000.62,0000.58
2022-12-29 06:15:00,,0812.8,5.00,0.00,20.9,19.9,00.0,29.9,22.4,22.1,0000.0,0000.77,0000.62,0000.58
2022-12-29 06:16:00,,0812.8,5.04,0.00,20.9,19.5,00.0,29.9,22.3,22.2,0000.0,0000.76,0000.62,0000.59
2022-12-29 06:17:00,,0812.9,5.02,0.00,20.8,19.2,00.0,29.9,22.1,22.2,0000.0,0000.74,0000.62,0000.60
2022-12-29 06:18:00,,0812.9,4.98,0.00,20.8,19.0,00.0,29.8,22.1,22.4,0000.0,0000.75,0000.63,0000.61
2022-12-29 06:19:00,,0812.9,4.97,0.00,20.7,18.8,00.0,29.8,22.0,22.7,0000.0,0000.73,0000.63,0000.61
2022-12-29 06:20:00,,0812.8,5.03,0.00,20.7,18.8,00.0,29.8,22.0,22.4,0000.0,0000.70,0000.62,0000.61
2022-12-29 06:21:00,,0813.1,5.00,0.00,20.7,18.7,00.0,29.8,22.0,22.4,0000.0,0000.70,0000.62,0000.60
2022-12-29 06:22:00,,0813.0,5.01,0.00,20.6,19.3,00.0,29.7,22.1,22.3,0000.0,0000.70,0000.62,0000.60
2022-12-29 06:23:00,,0812.9,4.98,0.00,20.8,20.8,00.0,29.7,22.6,22.2,0000.0,0000.72,0000.61,0000.59
2022-12-29 06:24:00,,0813.2,4.99,0.00,21.0,22.0,00.0,29.7,23.0,21.9,0000.0,0000.68,0000.59,0000.57
2022-12-29 06:25:00,,0812.9,5.01,0.00,21.1,21.8,00.0,29.8,23.0,21.7,0000.0,0000.67,0000.58,0000.56
2022-12-29 06:26:00,,0813.0,5.02,0.00,21.1,21.2,00.0,29.8,22.9,21.6,0000.0,0000.65,0000.56,0000.54
2022-12-29 06:27:00,,0813.0,4.98,0.00,21.1,20.6,00.0,29.9,22.8,21.6,0000.0,0000.62,0000.53,0000.52
2022-12-29 06:28:00,,0813.3,4.98,0.00,21.1,20.2,00.0,29.9,22.7,21.6,0000.0,0000.62,0000.53,0000.51
2022-12-29 06:29:00,,0812.9,4.97,0.00,21.0,19.8,00.0,29.9,22.5,21.6,0000.0,0000.63,0000.53,0000.51
2022-12-29 06:30:00,,0813.1,5.02,0.00,21.0,19.6,00.0,29.9,22.5,21.6,0000.0,0000.64,0000.53,0000.51
2022-12-29 06:31:00,,0813.2,5.00,0.00,21.0,19.5,00.0,29.9,22.5,21.7,0000.0,0000.65,0000.53,0000.51
2022-12-29 06:32:00,,0813.2,5.00,0.00,21.0,19.4,00.0,29.9,22.5,21.6,0000.0,0000.66,0000.53,0000.51
2022-12-29 06:33:00,,0813.1,4.98,0.00,21.0,19.4,00.0,29.9,22.5,21.7,0000.0,0000.68,0000.54,0000.52
2022-12-29 06:34:00,,0813.2,4.98,0.00,20.9,19.3,00.0,29.9,22.5,21.7,0000.0,0000.65,0000.54,0000.53
2022-12-29 06:35:00,,0813.1,5.01,0.00,20.9,19.3,00.0,29.9,22.5,21.7,0000.0,0000.68,0000.56,0000.55
2022-12-29 06:36:00,,0813.1,4.97,0.00,20.9,19.3,00.0,29.9,22.5,21.7,0000.0,0000.71,0000.59,0000.58
2022-12-29 06:37:00,,0813.1,5.03,0.00,20.9,19.3,00.0,29.9,22.4,21.7,0000.0,0000.75,0000.61,0000.61
2022-12-29 06:38:00,,0813.4,5.03,0.00,20.9,19.3,00.0,29.9,22.4,21.7,0000.0,0000.77,0000.64,0000.63
2022-12-29 06:39:00,,0813.1,5.01,0.00,20.9,19.7,00.0,29.8,22.6,21.7,0000.0,0000.79,0000.66,0000.65
2022-12-29 06:40:00,,0813.0,4.99,0.00,21.0,21.1,00.0,29.8,22.9,21.5,0000.0,0000.80,0000.67,0000.66
2022-12-29 06:41:00,,0813.0,4.96,0.00,21.2,22.2,00.0,29.8,23.2,21.4,0000.0,0000.81,0000.68,0000.67
2022-12-29 06:42:00,,0813.1,5.03,0.00,21.3,22.2,00.0,29.9,23.4,21.2,0000.0,0000.82,0000.69,0000.69
2022-12-29 06:43:00,,0813.1,5.03,0.00,21.4,21.6,00.0,30.0,23.2,21.1,0000.0,0000.85,0000.72,0000.71
2022-12-29 06:44:00,,0813.1,4.98,0.00,21.3,21.1,00.0,30.0,23.1,21.1,0000.0,0000.91,0000.75,0000.73
2022-12-29 06:45:00,,0813.1,4.97,0.00,21.3,20.6,00.0,30.1,23.0,21.1,0000.0,0000.95,0000.78,0000.75
2022-12-29 06:46:00,,0813.1,5.01,0.00,21.3,20.3,00.0,30.1,22.9,21.1,0000.0,0000.99,0000.80,0000.77
2022-12-29 06:47:00,,0813.1,5.03,0.00,21.3,20.0,00.0,30.1,22.8,21.1,0000.0,0001.03,0000.83,0000.80
2022-12-29 06:48:00,,0813.1,5.01,0.00,21.2,19.7,00.0,30.1,22.8,21.2,0000.0,0001.07,0000.86,0000.81
2022-12-29 06:49:00,,0813.1,4.98,0.00,21.2,19.6,00.0,30.1,22.7,21.2,0000.0,0001.09,0000.87,0000.82
2022-12-29 06:50:00,,0813.1,4.97,0.00,21.1,19.4,00.0,30.1,22.7,21.3,0000.0,0001.10,0000.87,0000.82
2022-12-29 06:51:00,,0813.1,4.99,0.00,21.1,19.4,00.0,30.1,22.6,21.3,0000.0,0001.12,0000.88,0000.83
2022-12-29 06:52:00,,0813.2,5.03,0.00,21.1,19.3,00.0,30.1,22.6,21.3,0000.0,0001.14,0000.90,0000.85
2022-12-29 06:53:00,,0813.1,5.02,0.00,21.0,19.2,00.0,30.1,22.5,21.4,0000.0,0001.15,0000.91,0000.86
2022-12-29 06:54:00,,0813.1,4.99,0.00,21.0,19.1,00.0,30.0,22.4,21.6,0000.0,0001.15,0000.91,0000.86
2022-12-29 06:55:00,,0813.1,4.98,0.00,20.9,19.0,00.0,30.0,22.4,21.6,0000.0,0001.11,0000.89,0000.86
2022-12-29 06:56:00,,0813.1,4.98,0.00,20.9,18.9,00.0,30.0,22.3,21.6,0000.0,0001.08,0000.88,0000.86
2022-12-29 06:57:00,,0813.2,5.06,0.00,20.9,20.0,00.0,29.9,22.6,21.5,0000.0,0001.06,0000.87,0000.85
2022-12-29 06:58:00,,0813.2,5.02,0.00,21.1,21.4,00.0,29.9,23.0,21.4,0000.0,0001.04,0000.86,0000.84
2022-12-29 06:59:00,,0813.1,4.99,0.00,21.2,22.3,00.0,29.9,23.3,21.2,0000.0,0001.01,0000.84,0000.83
